When you browse on this site, cookies collect data to enhance your experience and personalize the content and advertising you see.
Visit our Privacy Policy to learn more. By continuing to use the site, you agree to this use of cookies and data.
  • In Lithuania
  • List of Countries
  • For 7 days
  • Water Temperature
  • Weather Map
  • Weather Widgets
  • user-avatar
    Login

    Hourly Weather Northampton

    Today, 29 March, Sunday

    Time Temperature Precipitation Wind Pressure Humidity
    00:00 0°C° 0 mm 5 mps 768 mmHg 82%
    01:00 -1°C° 0 mm 5 mps 768 mmHg 80%
    02:00 -1°C° 0 mm 5 mps 768 mmHg 78%
    03:00 -2°C° 0 mm 6 mps 768 mmHg 76%
    04:00 -2°C° 0 mm 6 mps 769 mmHg 77%
    05:00 -2°C° 0 mm 6 mps 769 mmHg 77%
    06:00 -3°C° 0 mm 6 mps 769 mmHg 80%
    07:00 -1°C° 0 mm 8 mps 769 mmHg 74%
    08:00 0°C° 0 mm 9 mps 770 mmHg 68%
    09:00 +1°C° 0 mm 10 mps 770 mmHg 63%
    10:00 +2°C° 0 mm 10 mps 770 mmHg 61%
    11:00 +2°C° 0 mm 10 mps 771 mmHg 59%
    12:00 +3°C° 0 mm 10 mps 771 mmHg 58%
    13:00 +3°C° 0 mm 10 mps 771 mmHg 58%
    14:00 +3°C° 0 mm 9 mps 770 mmHg 58%
    15:00 +3°C° 0 mm 9 mps 770 mmHg 58%
    16:00 +2°C° 0 mm 8 mps 771 mmHg 62%
    17:00 +2°C° 0 mm 7 mps 771 mmHg 66%
    18:00 +1°C° 0 mm 6 mps 771 mmHg 70%
    19:00 0°C° 0 mm 5 mps 771 mmHg 73%
    20:00 -1°C° 0 mm 5 mps 771 mmHg 76%
    21:00 -2°C° 0 mm 4 mps 771 mmHg 79%
    22:00 -2°C° 0 mm 4 mps 771 mmHg 81%
    23:00 -2°C° 0 mm 4 mps 771 mmHg 82%

    Tomorrow, 30 March, Monday

    Time Temperature Precipitation Wind Pressure Humidity
    00:00 -3°C° 0 mm 4 mps 771 mmHg 84%
    01:00 -3°C° 0 mm 4 mps 770 mmHg 85%
    02:00 -2°C° 0 mm 3 mps 769 mmHg 86%
    03:00 -2°C° 0 mm 3 mps 769 mmHg 87%
    04:00 -2°C° 0 mm 3 mps 769 mmHg 85%
    05:00 -2°C° 0 mm 3 mps 768 mmHg 83%
    06:00 -1°C° 0 mm 3 mps 768 mmHg 81%
    07:00 0°C° 0 mm 4 mps 768 mmHg 80%
    08:00 +2°C° 0 mm 5 mps 768 mmHg 78%
    09:00 +4°C° 0 mm 6 mps 767 mmHg 76%
    10:00 +4°C° 0.1 mm 6 mps 767 mmHg 77%
    11:00 +4°C° 0.1 mm 6 mps 767 mmHg 77%
    12:00 +4°C° 0.1 mm 6 mps 767 mmHg 78%
    13:00 +5°C° 0.2 mm 6 mps 766 mmHg 77%
    14:00 +5°C° 0.2 mm 6 mps 766 mmHg 76%
    15:00 +7°C° 0.2 mm 6 mps 766 mmHg 74%
    16:00 +5°C° 0.1 mm 6 mps 765 mmHg 78%
    17:00 +5°C° 0.1 mm 5 mps 765 mmHg 82%
    18:00 +3°C° 0.1 mm 5 mps 765 mmHg 86%
    19:00 +2°C° 0 mm 5 mps 765 mmHg 89%
    20:00 +1°C° 0 mm 4 mps 766 mmHg 91%
    21:00 +1°C° 0 mm 4 mps 766 mmHg 94%
    22:00 0°C° 0 mm 4 mps 766 mmHg 94%
    23:00 0°C° 0 mm 4 mps 766 mmHg 94%

    Day after tomorrow, 31 March, Tuesday

    Time Temperature Precipitation Wind Pressure Humidity
    00:00 -1°C° 0 mm 4 mps 766 mmHg 94%
    01:00 -1°C° 0 mm 4 mps 766 mmHg 94%
    02:00 -1°C° 0 mm 4 mps 766 mmHg 95%
    03:00 -1°C° 0 mm 3 mps 765 mmHg 95%
    04:00 -2°C° 0 mm 4 mps 766 mmHg 95%
    05:00 -2°C° 0 mm 4 mps 766 mmHg 95%
    06:00 -2°C° 0 mm 4 mps 766 mmHg 94%
    07:00 0°C° 0 mm 4 mps 766 mmHg 88%
    08:00 +3°C° 0 mm 4 mps 766 mmHg 82%
    09:00 +4°C° 0 mm 4 mps 766 mmHg 77%
    10:00 +5°C° 0 mm 4 mps 766 mmHg 73%
    11:00 +6°C° 0 mm 4 mps 766 mmHg 70%
    12:00 +6°C° 0 mm 4 mps 766 mmHg 66%
    13:00 +6°C° 0 mm 4 mps 766 mmHg 66%
    14:00 +8°C° 0 mm 3 mps 765 mmHg 66%
    15:00 +8°C° 0 mm 3 mps 765 mmHg 66%
    16:00 +7°C° 0 mm 3 mps 764 mmHg 71%
    17:00 +6°C° 0 mm 2 mps 764 mmHg 75%
    18:00 +5°C° 0 mm 2 mps 764 mmHg 80%
    19:00 +4°C° 0 mm 2 mps 764 mmHg 83%
    20:00 +4°C° 0 mm 1 mps 764 mmHg 85%
    21:00 +2°C° 0 mm 1 mps 764 mmHg 88%
    22:00 +2°C° 0 mm 1 mps 763 mmHg 88%
    23:00 +2°C° 0 mm 1 mps 763 mmHg 88%

    1 April, Wednesday

    Time Temperature Precipitation Wind Pressure Humidity
    00:00 +1°C° 0 mm 0 mps 763 mmHg 87%
    01:00 +2°C° 0 mm 1 mps 762 mmHg 86%
    02:00 +2°C° 0 mm 1 mps 762 mmHg 85%
    03:00 +3°C° 0 mm 1 mps 761 mmHg 84%
    04:00 +3°C° 0 mm 1 mps 761 mmHg 84%
    05:00 +2°C° 0 mm 2 mps 761 mmHg 84%
    06:00 +2°C° 0 mm 2 mps 760 mmHg 84%
    07:00 +3°C° 0 mm 2 mps 760 mmHg 81%
    08:00 +3°C° 0 mm 3 mps 760 mmHg 78%
    09:00 +4°C° 0 mm 3 mps 759 mmHg 75%
    10:00 +5°C° 0 mm 3 mps 759 mmHg 72%
    11:00 +7°C° 0 mm 3 mps 759 mmHg 69%
    12:00 +7°C° 0 mm 3 mps 759 mmHg 66%
    13:00 +7°C° 0 mm 3 mps 758 mmHg 66%
    14:00 +8°C° 0 mm 3 mps 758 mmHg 67%
    15:00 +8°C° 0 mm 3 mps 757 mmHg 67%
    16:00 +7°C° 0 mm 3 mps 757 mmHg 70%
    17:00 +7°C° 0 mm 3 mps 757 mmHg 73%
    18:00 +5°C° 0 mm 3 mps 756 mmHg 76%
    19:00 +5°C° 0 mm 3 mps 756 mmHg 78%
    20:00 +4°C° 0 mm 3 mps 756 mmHg 81%
    21:00 +3°C° 0 mm 3 mps 756 mmHg 84%
    22:00 +2°C° 0 mm 3 mps 756 mmHg 87%
    23:00 +2°C° 0 mm 3 mps 756 mmHg 90%

    2 April, Thursday

    Time Temperature Precipitation Wind Pressure Humidity
    00:00 +1°C° 0 mm 3 mps 756 mmHg 94%
    01:00 +1°C° 0 mm 3 mps 755 mmHg 95%
    02:00 +1°C° 0 mm 3 mps 755 mmHg 95%
    03:00 +1°C° 0 mm 3 mps 754 mmHg 96%
    04:00 +1°C° 0 mm 3 mps 754 mmHg 96%
    05:00 +1°C° 0 mm 3 mps 754 mmHg 96%
    06:00 +1°C° 0 mm 3 mps 754 mmHg 96%
    07:00 +1°C° 0 mm 4 mps 753 mmHg 92%
    08:00 +4°C° 0 mm 4 mps 753 mmHg 88%
    09:00 +6°C° 0 mm 5 mps 753 mmHg 84%
    10:00 +7°C° 0 mm 5 mps 753 mmHg 78%
    11:00 +8°C° 0 mm 5 mps 753 mmHg 73%
    12:00 +9°C° 0 mm 5 mps 752 mmHg 68%
    13:00 +9°C° 0.1 mm 5 mps 752 mmHg 70%
    14:00 +9°C° 0.1 mm 6 mps 751 mmHg 72%
    15:00 +9°C° 0.1 mm 6 mps 751 mmHg 74%
    16:00 +8°C° 0.1 mm 5 mps 751 mmHg 78%
    17:00 +8°C° 0.1 mm 5 mps 750 mmHg 82%
    18:00 +7°C° 0.1 mm 4 mps 750 mmHg 86%
    19:00 +6°C° 0 mm 4 mps 751 mmHg 88%
    20:00 +5°C° 0 mm 4 mps 751 mmHg 89%
    21:00 +4°C° 0 mm 3 mps 751 mmHg 91%
    22:00 +3°C° 0 mm 3 mps 751 mmHg 91%
    23:00 +2°C° 0 mm 3 mps 752 mmHg 90%

    3 April, Friday

    Time Temperature Precipitation Wind Pressure Humidity
    00:00 +1°C° 0 mm 3 mps 752 mmHg 90%
    01:00 +1°C° 0 mm 3 mps 752 mmHg 90%
    02:00 +1°C° 0 mm 3 mps 752 mmHg 90%
    03:00 0°C° 0 mm 3 mps 752 mmHg 90%
    04:00 0°C° 0 mm 3 mps 753 mmHg 89%
    05:00 -1°C° 0 mm 3 mps 753 mmHg 88%
    06:00 -1°C° 0 mm 3 mps 754 mmHg 87%
    07:00 0°C° 0 mm 3 mps 754 mmHg 80%
    08:00 +2°C° 0 mm 3 mps 755 mmHg 72%
    09:00 +4°C° 0 mm 3 mps 755 mmHg 64%
    10:00 +5°C° 0 mm 3 mps 755 mmHg 60%
    11:00 +7°C° 0 mm 3 mps 755 mmHg 56%
    12:00 +8°C° 0 mm 2 mps 756 mmHg 52%
    13:00 +8°C° 0 mm 2 mps 756 mmHg 52%
    14:00 +8°C° 0 mm 2 mps 756 mmHg 52%
    15:00 +9°C° 0 mm 2 mps 756 mmHg 53%
    16:00 +8°C° 0 mm 2 mps 756 mmHg 59%
    17:00 +7°C° 0 mm 2 mps 756 mmHg 65%
    18:00 +7°C° 0 mm 1 mps 756 mmHg 71%
    19:00 +6°C° 0 mm 1 mps 756 mmHg 72%
    20:00 +5°C° 0 mm 1 mps 757 mmHg 74%
    21:00 +4°C° 0 mm 1 mps 757 mmHg 76%
    22:00 +4°C° 0 mm 1 mps 757 mmHg 78%
    23:00 +3°C° 0 mm 1 mps 757 mmHg 80%
    Show more